Thedford, NE

10:07 PM CDT on August 25, 2016 (GMT -0500)
Thedford

Weather History for KTIF - March, 2012

Change the Weather History Date:

Saturday, March 24, 2012

  Actual Average (KLBF) Record (KLBF)
Temperature  
Mean Temperature 50 °F 40 °F  
Max Temperature 62 °F 55 °F 82 °F (2004)
Min Temperature 39 °F 26 °F 0 °F (1966)
Degree Days  
Heating Degree Days 14 25  
Month to date heating degree days 673  
Since 1 July heating degree days 5701  
Cooling Degree Days 0 0  
Month to date cooling degree days 0  
Year to date cooling degree days 0  
Moisture  
Dew Point 41 °F    
Average Humidity 66    
Maximum Humidity 95    
Minimum Humidity 49    
Precipitation  
Precipitation 0.00 in 0.04 in 0.56 in (1902)
Month to date precipitation 0.75  
Year to date precipitation 1.59  
Snow  
Snow 0.00 in 0.10 in 4.70 in (1971)
Month to date snowfall 3.4  
Since 1 July snowfall 24.3  
Snow Depth -    
Sea Level Pressure  
Sea Level Pressure 30.01 in    
Wind  
Wind Speed 8 mph (NNW)    
Max Wind Speed 20 mph    
Max Gust Speed 26 mph    
Visibility 10 miles    
Events      
T = Trace of Precipitation, MM = Missing Value Source: NWS Daily Summary

Daily Weather History Graph

Daily Weather History Graph

Search for Another Location

Airport or City:

Trip Planner

Search our weather history database for the weather conditions in past years. The results will help you decide how hot, cold, wet, or windy it might be!

Date:

Astronomy

Mar. 24, 2012 Rise Set
Actual Time 7:37 AM CDT 7:59 PM CDT
Civil Twilight 7:09 AM CDT 8:27 PM CDT
Nautical Twilight 6:37 AM CDT 9:00 PM CDT
Astronomical Twilight 6:03 AM CDT 9:34 PM CDT
Moon 8:15 AM CDT (3/24) 10:24 PM CDT (3/24)
Length of Visible Light 13h 17m
Length of Day
12h 21m
Waxing Crescent, 4% of the Moon is Illuminated
Mar 24
Waxing Crescent
Mar 30
First Quarter
Apr 6
Full
Apr 13
Last Quarter
Apr 21
New

Hourly Weather History & Observations

Time (CDT) Temp. Windchill Dew Point Humidity Pressure Visibility Wind Dir Wind Speed Gust Speed Precip Events Conditions
12:15 AM 51.6 °F - 40.3 °F 65% 29.95 in 10.0 mi SSW 9.2 mph - N/A   Clear
12:35 AM 50.5 °F - 40.1 °F 67% 29.95 in 10.0 mi SSW 8.1 mph - N/A   Clear
12:55 AM 49.8 °F - 39.7 °F 68% 29.95 in 10.0 mi SSW 5.8 mph - N/A   Clear
1:15 AM 48.2 °F - 39.2 °F 71% 29.95 in 10.0 mi SSW 4.6 mph - N/A   Clear
1:35 AM 50.0 °F - 39.2 °F 66% 29.96 in 10.0 mi SSW 9.2 mph - N/A   Clear
1:55 AM 49.1 °F - 39.2 °F 69% 29.95 in 10.0 mi SSW 6.9 mph - N/A   Clear
2:15 AM 49.1 °F - 39.4 °F 69% 29.95 in 10.0 mi SSW 8.1 mph - N/A   Clear
2:35 AM 48.2 °F - 39.2 °F 71% 29.96 in 10.0 mi SSW 5.8 mph - N/A   Clear
2:55 AM 48.4 °F - 39.6 °F 72% 29.96 in 10.0 mi SSW 5.8 mph - N/A   Clear
3:15 AM 48.4 °F - 39.7 °F 72% 29.95 in 10.0 mi SSW 5.8 mph - N/A   Clear
3:35 AM 47.8 °F - 40.1 °F 75% 29.94 in 10.0 mi SSW 5.8 mph - N/A   Clear
3:55 AM 47.7 °F - 40.1 °F 75% 29.94 in 10.0 mi SSW 6.9 mph - N/A   Clear
4:15 AM 47.7 °F - 40.5 °F 76% 29.93 in 10.0 mi SSW 8.1 mph - N/A   Clear
4:35 AM 46.2 °F - 39.7 °F 78% 29.93 in 10.0 mi Calm Calm - N/A   Clear
4:55 AM 46.4 °F - 40.3 °F 79% 29.93 in 10.0 mi Calm Calm - N/A   Clear
5:15 AM 45.1 °F - 39.6 °F 81% 29.93 in 10.0 mi Calm Calm - N/A   Clear
5:35 AM 45.3 °F - 40.5 °F 83% 29.93 in 10.0 mi Calm Calm - N/A   Clear
5:55 AM 43.7 °F - 39.6 °F 85% 29.94 in 10.0 mi Calm Calm - N/A   Clear
6:15 AM 42.3 °F - 39.0 °F 88% 29.95 in 10.0 mi Calm Calm - N/A   Clear
6:35 AM 42.1 °F - 39.6 °F 91% 29.95 in 10.0 mi Calm Calm - N/A   Clear
6:55 AM 42.3 °F - 39.7 °F 91% 29.95 in 10.0 mi Calm Calm - N/A   Clear
7:15 AM 40.3 °F - 37.6 °F 90% 29.95 in 10.0 mi Calm Calm - N/A   Clear
7:35 AM 41.0 °F - 38.7 °F 91% 29.95 in 10.0 mi Calm Calm - N/A   Clear
7:55 AM 39.4 °F - 37.6 °F 93% 29.96 in 7.0 mi Calm Calm - N/A   Clear
8:15 AM 41.7 °F 39.8 °F 40.3 °F 95% 29.97 in 10.0 mi WNW 3.5 mph - N/A   Clear
8:35 AM 44.6 °F - 42.6 °F 93% 29.98 in 10.0 mi Calm Calm - N/A   Clear
8:55 AM 48.4 °F - 44.6 °F 87% 29.99 in 10.0 mi WNW 10.4 mph - N/A   Clear
9:15 AM 50.9 °F - 45.3 °F 81% 29.99 in 10.0 mi NW 4.6 mph - N/A   Clear
9:35 AM 56.5 °F - 46.9 °F 70% 30.00 in 10.0 mi NW 9.2 mph - N/A   Clear
9:55 AM 57.9 °F - 46.0 °F 65% 30.01 in 10.0 mi North 17.3 mph 23.0 mph N/A   Clear
10:15 AM 56.7 °F - 44.4 °F 64% 30.03 in 10.0 mi NNW 19.6 mph 24.2 mph N/A   Clear
10:35 AM 55.6 °F - 42.3 °F 61% 30.03 in 10.0 mi NNW 17.3 mph 23.0 mph N/A   Clear
10:55 AM 55.4 °F - 40.6 °F 58% 30.04 in 10.0 mi NNW 16.1 mph - N/A   Clear
11:15 AM 56.3 °F - 40.1 °F 55% 30.05 in 10.0 mi North 18.4 mph 26.5 mph N/A   Clear
11:35 AM 56.8 °F - 40.1 °F 54% 30.05 in 10.0 mi NNW 18.4 mph 25.3 mph N/A   Clear
11:55 AM 58.1 °F - 40.6 °F 52% 30.05 in 10.0 mi NNW 18.4 mph 24.2 mph N/A   Clear
12:15 PM 58.5 °F - 40.5 °F 51% 30.05 in 10.0 mi North 17.3 mph 25.3 mph N/A   Clear
12:35 PM 59.9 °F - 41.9 °F 51% 30.05 in 10.0 mi NNW 17.3 mph 25.3 mph N/A   Clear
12:55 PM 60.4 °F - 42.4 °F 51% 30.05 in 10.0 mi NNW 17.3 mph 21.9 mph N/A   Clear
1:15 PM 59.7 °F - 42.8 °F 54% 30.06 in 10.0 mi North 17.3 mph 21.9 mph N/A   Clear
1:35 PM 58.3 °F - 43.0 °F 57% 30.07 in 10.0 mi North 12.7 mph 25.3 mph N/A   Clear
1:55 PM 60.8 °F - 43.5 °F 53% 30.07 in 10.0 mi North 16.1 mph 21.9 mph N/A   Clear
2:15 PM 61.9 °F - 43.3 °F 51% 30.07 in 10.0 mi North 12.7 mph 20.7 mph N/A   Clear
2:35 PM 61.5 °F - 43.2 °F 51% 30.07 in 10.0 mi North 11.5 mph - N/A   Clear
2:55 PM 60.8 °F - 42.8 °F 52% 30.07 in 10.0 mi NNE 12.7 mph 17.3 mph N/A   Clear
3:15 PM 60.4 °F - 42.8 °F 52% 30.07 in 10.0 mi North 15.0 mph 19.6 mph N/A   Clear
3:35 PM 60.3 °F - 42.8 °F 53% 30.07 in 10.0 mi North 12.7 mph 17.3 mph N/A   Clear
3:55 PM 62.4 °F - 42.8 °F 49% 30.07 in 10.0 mi North 10.4 mph - N/A   Clear
4:15 PM 61.3 °F - 43.0 °F 51% 30.07 in 10.0 mi NNE 15.0 mph 19.6 mph N/A   Clear
4:35 PM 60.6 °F - 43.0 °F 52% 30.07 in 10.0 mi NNE 11.5 mph 17.3 mph N/A   Clear
4:55 PM 62.2 °F - 43.0 °F 49% 30.07 in 10.0 mi NNE 10.4 mph 17.3 mph N/A   Clear
5:15 PM 61.7 °F - 42.8 °F 50% 30.07 in 10.0 mi North 12.7 mph - N/A   Clear
5:35 PM 61.7 °F - 42.8 °F 50% 30.07 in 10.0 mi NNE 9.2 mph - N/A   Clear
5:55 PM 61.7 °F - 43.0 °F 50% 30.07 in 10.0 mi North 5.8 mph - N/A   Clear
6:15 PM 60.1 °F - 42.6 °F 53% 30.07 in 10.0 mi NNE 12.7 mph - N/A   Clear
6:35 PM 59.5 °F - 42.4 °F 53% 30.08 in 10.0 mi NE 11.5 mph 16.1 mph N/A   Clear
6:55 PM 58.5 °F - 42.6 °F 56% 30.08 in 10.0 mi NNE 11.5 mph - N/A   Clear
7:15 PM 57.0 °F - 42.3 °F 58% 30.09 in 10.0 mi NNE 11.5 mph - N/A   Clear
7:35 PM 55.4 °F - 42.1 °F 61% 30.10 in 10.0 mi NNE 9.2 mph - N/A   Clear
7:55 PM 53.8 °F - 41.9 °F 64% 30.10 in 10.0 mi NNE 8.1 mph - N/A   Clear
8:15 PM 52.0 °F - 41.9 °F 69% 30.11 in 10.0 mi NNE 6.9 mph - N/A   Clear
8:35 PM 50.9 °F - 41.5 °F 70% 30.11 in 10.0 mi NNE 6.9 mph - N/A   Clear
8:55 PM 50.4 °F - 41.4 °F 71% 30.11 in 10.0 mi NNE 6.9 mph - N/A   Clear
9:15 PM 49.5 °F - 41.2 °F 73% 30.13 in 10.0 mi NNE 5.8 mph - N/A   Clear
9:35 PM 48.2 °F - 41.0 °F 76% 30.14 in 10.0 mi NNE 6.9 mph - N/A   Clear
9:55 PM 47.3 °F - 40.5 °F 77% 30.14 in 10.0 mi North 3.5 mph - N/A   Clear
10:15 PM 46.4 °F 44.3 °F 40.1 °F 79% 30.14 in 10.0 mi North 4.6 mph - N/A   Clear
10:35 PM 45.9 °F - 40.5 °F 81% 30.14 in 10.0 mi Calm Calm - N/A   Clear
10:55 PM 45.5 °F - 40.1 °F 81% 30.14 in 10.0 mi Calm Calm - N/A   Clear
11:15 PM 45.0 °F - 39.7 °F 82% 30.14 in 10.0 mi Calm Calm - N/A   Clear
11:35 PM 45.1 °F - 39.6 °F 81% 30.14 in 10.0 mi Calm Calm - N/A   Clear
11:55 PM 44.2 °F - 39.2 °F 82% 30.14 in 10.0 mi Calm Calm - N/A   Clear